This demonstration page uses our WeatherBlox Daily Observations layout. Learn more.

Left ArrowRight Arrow

39.92423, -83.80882

Hourly Observations for January 17, 2018

Temp ( °F °C ) Dew Point ( °F °C ) Humidity (%) Winds ( mph kmh ) Pressure ( in mb ) Visibility ( mi km ) Precip ( " mm )
12:56 am 00:56 Cloudy with Light Snow 6 -14.4 2 -16.7 83 83 WSW 6 9 30.57 1035 9 14.48406 0 0.0254
1:56 am 01:56 Cloudy with Light Snow 6 -14.4 3 -16.1 87 87 W 7 11 30.56 1035 9 14.48406 0 0.0254
2:15 am 02:15 Cloudy with Light Snow 7 -14 3 -16 85 85 W 5 7 30.62 1037 9 14.48406 0 0.0254
2:56 am 02:56 Cloudy with Light Snow 7 -13.9 4 -15.6 87 87 WSW 6 9 30.57 1035 9 14.48406 0 0.0254
3:56 am 03:56 Cloudy with Light Snow 7 -13.9 4 -15.6 87 87 W 7 11 30.58 1035 9 14.48406 0 0.0254
4:03 am 04:03 Cloudy with Light Snow 7 -14 3 -16 85 85 WSW 7 11 30.62 1037 9 14.48406 0 0.0254
4:56 am 04:56 Cloudy with Light Snow 7 -13.9 4 -15.6 87 87 WSW 6 9 30.57 1035 9 14.48406 0 0.0254
5:56 am 05:56 Cloudy with Light Snow 7 -13.9 4 -15.6 87 87 WSW 6 9 30.58 1036 9 14.48406 0 0.0254
6:56 am 06:56 Cloudy with Light Snow 7 -13.9 4 -15.6 87 87 W 6 9 30.59 1036 9 14.48406 0 0.0254
7:27 am 07:27 Cloudy with Light Snow 7 -14 3 -16 85 85 SW 5 7 30.62 1037 9 14.48406 0 0.0254
7:56 am 07:56 Cloudy with Light Snow 7 -13.9 4 -15.6 87 87 WSW 5 7 30.58 1036 9 14.48406 0 0.0254
8:45 am 08:45 Cloudy with Light Snow 9 -13 5 -15 85 85 SW 5 7 30.62 1037 2.5 4.02335 0 0.0254
8:56 am 08:56 Cloudy with Light Snow 9 -12.8 5 -15 84 84 WSW 5 7 30.59 1036 2 3.21868 0 0.0254
9:56 am 09:56 Cloudy with Light Snow 12 -11.1 7 -13.9 80 80 WNW 7 11 30.59 1036 4 6.43736 0 0.0254
10:34 am 10:34 Cloudy with Light Snow 14 -10 9 -13 79 79 W 8 13 30.62 1037 7 11.26538 0 0.0254
10:56 am 10:56 Cloudy with Light Snow 15 -9.4 8 -13.3 74 74 WSW 5 7 30.6 1036 7 11.26538 0 0.0254
11:56 am 11:56 Cloudy with Light Snow 18 -7.8 8 -13.3 65 65 W 9 15 30.59 1036 9 14.48406 0 0.0254
12:15 pm 12:15 Mostly Sunny 18 -8 9 -13 68 68 W 8 13 30.59 1036 10 16.0934 0 0.0254
12:56 pm 12:56 Sunny 22 -5.6 10 -12.2 60 60 WSW 9 15 30.55 1035 10 16.0934 0 0.0254
1:56 pm 13:56 Sunny 22 -5.6 10 -12.2 60 60 WSW 8 13 30.54 1034 10 16.0934 0 0
2:56 pm 14:56 Mostly Sunny 21 -6.1 11 -11.7 65 65 WSW 9 15 30.53 1034 10 16.0934 0 0
3:56 pm 15:56 Mostly Cloudy with Light Snow 18 -7.8 10 -12.2 71 71 WSW 9 15 30.53 1034 9 14.48406 0 0.0254
4:56 pm 16:56 Sunny 17 -8.3 10 -12.2 74 74 WSW 10 17 30.53 1034 10 16.0934 0 0.0254
5:56 pm 17:56 Clear 11 -11.7 6 -14.4 81 81 WSW 9 15 30.53 1034 10 16.0934 0 0
6:56 pm 18:56 Clear 11 -11.7 6 -14.4 81 81 WSW 8 13 30.51 1033 10 16.0934 0 0
7:56 pm 19:56 Clear 10 -12.2 6 -14.4 84 84 WSW 7 11 30.5 1033 10 16.0934 0 0
8:56 pm 20:56 Clear 9 -12.8 6 -14.4 88 88 WSW 7 11 30.48 1032 10 16.0934 0 0
9:56 pm 21:56 Clear 9 -12.8 6 -14.4 88 88 WSW 8 13 30.46 1031 10 16.0934 0 0
10:56 pm 22:56 Clear 13 -10.6 9 -12.8 84 84 SW 12 19 30.44 1031 10 16.0934 0 0
11:56 pm 23:56 Clear 15 -9.4 10 -12.2 80 80 WSW 14 22 30.41 1030 10 16.0934 0 0

Powered by AerisWeather